Theta_e
315 316 315 311 314 312 312 314 311 313 315 325 329 331 334 338 340 337 337 336 336 335 335 335 336 338 337 337 338 339 340 339 341 344 345 345 347 350 350 354 357 359 359 358
312 314 315 313 312 313 314 314 314 315 317 332 334 337 335 335 334 333 333 332 332 331 332 330 332 333 335 335 336 338 338 338 340 341 341 341 342 343 346 346 350 354 353 354
308 313 311 308 313 314 316 316 316 312 325 331 330 331 332 333 333 331 330 330 329 329 329 330 330 332 332 334 336 336 336 335 335 333 333 334 334 336 338 339 342 345 347 349
309 313 302 316 322 319 314 316 317 318 324 328 331 332 333 334 331 329 329 328 328 329 330 330 331 331 333 333 333 332 331 329 329 328 328 329 330 330 331 331 334 336 339 343
310 308 313 315 317 316 314 315 319 320 325 328 330 329 327 330 330 328 328 328 329 330 330 331 330 330 331 330 329 328 324 325 325 326 326 327 326 326 327 326 327 329 333 339
311 305 303 316 319 322 320 310 322 323 324 326 326 319 324 329 328 327 328 328 328 329 329 329 329 328 327 324 324 323 324 324 325 325 324 323 325 324 324 322 321 323 324 328
310 309 314 321 322 322 308 315 323 323 325 327 324 328 330 329 328 328 328 328 328 328 327 328 326 323 320 321 322 323 323 322 323 325 324 325 325 325 323 321 321 319 319 324
313 303 308 324 322 314 326 327 324 325 327 327 329 328 328 327 326 326 326 326 326 326 324 321 321 321 320 322 322 321 321 322 322 322 320 320 323 321 320 319 318 318 318 319
317 318 327 327 327 330 329 328 327 328 328 329 327 327 326 326 326 325 324 325 323 318 316 318 320 322 321 323 320 321 319 318 318 321 322 321 320 318 315 316 315 314 314 315
322 323 325 327 329 329 329 328 330 330 329 328 326 326 325 324 324 323 321 316 315 314 313 315 318 320 323 324 321 320 318 318 319 318 316 318 317 317 316 314 314 314 313 314
324 325 326 326 327 328 329 329 328 329 328 327 326 324 324 324 322 318 316 315 315 313 313 314 317 320 323 323 321 319 318 320 319 316 316 316 316 316 315 315 312 311 312 313
315 328 326 327 329 329 328 327 328 327 325 326 325 324 324 320 318 317 315 316 315 314 314 314 316 319 321 322 320 319 318 317 315 316 317 315 314 314 311 308 305 302 301 303
326 329 329 329 330 330 328 328 327 327 326 324 325 324 320 318 317 310 316 316 315 315 314 315 316 317 319 321 321 320 318 317 315 314 314 314 314 312 310 313 307 304 301 302
330 330 327 328 326 329 329 328 325 326 325 324 322 321 319 316 315 316 315 316 316 315 315 315 316 316 318 319 320 319 318 310 314 313 313 313 313 312 312 309 308 311 307 304
329 329 329 330 330 328 328 326 324 323 323 320 321 319 317 315 315 315 317 316 315 314 314 314 314 315 317 317 316 316 315 314 314 314 314 313 313 313 312 312 309 310 311 307
328 330 329 328 327 327 326 325 323 322 322 320 317 317 317 316 315 317 316 316 314 312 314 315 316 317 317 315 314 313 313 313 312 313 313 313 312 312 311 312 311 308 304 305
326 325 327 326 326 326 324 325 324 323 321 318 318 318 316 315 316 315 316 317 318 317 317 318 317 320 319 315 313 311 310 311 314 312 311 311 311 311 311 310 309 310 309 307
330 330 330 328 326 325 324 324 324 323 319 319 319 317 315 314 315 316 316 319 318 318 319 320 319 320 321 318 315 313 311 310 310 309 310 309 310 310 311 310 309 308 309 309
329 328 328 328 327 326 325 324 323 321 321 320 317 316 316 316 317 317 318 318 317 317 317 320 314 318 320 317 314 315 313 313 312 311 310 308 309 309 308 308 308 308 309 308
328 328 328 327 327 326 324 325 322 321 321 319 319 317 315 316 317 317 318 317 318 317 321 321 321 321 321 319 317 315 315 314 313 313 312 311 311 310 309 304 307 307 307 307
327 327 326 326 325 326 325 323 322 319 319 318 317 316 317 317 316 316 317 315 321 320 318 319 320 320 319 316 315 316 315 315 315 314 313 312 312 312 311 310 309 308 307 307
327 326 326 326 325 324 324 322 320 319 318 318 317 317 316 316 317 317 319 317 318 313 316 317 318 317 317 315 316 316 317 316 315 315 314 314 313 312 312 312 310 310 310 310
327 327 327 326 324 323 321 319 319 319 318 317 317 318 317 317 317 314 313 322 317 313 316 318 314 315 315 317 318 318 317 317 316 316 315 315 314 314 313 313 312 312 311 311
328 328 326 324 322 319 317 318 317 319 319 320 320 320 319 316 317 319 319 316 311 311 316 317 316 313 310 319 319 319 318 317 318 316 317 308 315 316 315 314 313 313 312 310
329 326 323 321 319 317 319 319 318 319 319 320 321 321 322 320 317 318 318 319 312 314 318 318 314 313 318 320 321 320 320 319 315 317 318 318 316 315 317 316 314 313 312 312
325 322 320 321 318 318 318 318 316 317 318 318 319 320 321 321 320 318 320 315 319 316 319 320 319 320 321 320 320 319 319 318 317 318 315 317 317 314 316 317 316 313 313 313
324 315 319 319 320 320 320 317 316 316 316 319 318 321 322 321 319 316 314 319 319 319 319 319 319 318 319 319 318 318 318 317 311 315 318 317 317 317 317 315 315 315 315 312
Wind_Speed
11 10 18 12 18 2 8 13 11 14 10 11 10 9 8 9 11 8 9 10 8 8 6 5 4 6 7 9 10 10 10 10 10 10 10 11 12 12 13 12 13 12 12 12
8 12 13 20 2 1 2 6 6 10 8 11 11 10 8 9 10 8 10 7 8 6 4 3 5 6 8 9 9 9 9 9 10 11 11 12 11 12 14 14 14 13 13 14
11 9 6 9 10 5 6 2 6 7 11 10 10 10 9 8 8 9 7 5 3 4 5 5 7 7 7 8 9 9 11 12 13 13 13 12 13 13 12 11 12 15 15 14
4 6 11 11 8 8 2 5 2 2 7 7 11 10 10 9 8 7 5 4 4 6 7 8 9 10 10 10 9 9 8 10 11 11 12 13 14 14 13 13 14 12 13 15
6 16 10 12 11 7 2 5 3 7 9 10 12 12 9 7 7 5 5 5 6 7 7 6 9 10 9 9 9 11 12 12 12 13 13 14 14 15 14 14 15 14 15 15
11 12 6 11 13 8 4 5 9 8 10 11 11 11 12 8 6 5 5 6 7 7 7 8 9 10 10 10 10 12 13 14 13 13 13 13 11 12 11 12 14 13 16 17
5 12 12 10 12 10 4 8 6 6 9 10 6 10 13 9 6 5 5 7 7 6 7 8 10 10 10 10 12 14 14 13 12 11 12 14 14 13 13 14 14 13 16 15
5 10 11 10 10 0 7 6 6 6 8 9 11 10 9 6 5 6 7 7 7 7 7 8 10 10 10 12 13 12 12 11 13 12 10 10 12 12 12 12 13 14 12 13
7 8 10 9 10 8 7 8 7 9 8 10 10 8 6 6 5 7 6 6 8 7 7 8 10 10 10 12 11 13 13 12 12 11 10 11 12 13 10 10 9 11 10 10
10 7 7 10 9 7 8 9 10 10 11 9 8 7 5 5 6 5 7 7 7 8 9 9 9 9 9 10 10 11 11 11 12 13 14 11 11 10 8 9 9 9 10 10
8 7 7 7 7 9 10 11 12 11 9 8 7 5 5 7 7 7 6 6 7 7 8 9 9 9 10 10 10 13 13 12 13 11 12 11 10 9 11 9 8 10 9 10
5 14 4 13 10 12 12 13 12 12 10 7 6 7 8 8 7 6 6 6 6 7 8 9 10 10 11 10 9 11 11 10 10 10 10 10 10 10 11 7 12 10 7 4
10 10 12 14 14 14 13 13 12 11 10 9 9 10 10 9 8 3 6 6 6 6 7 8 8 9 10 10 10 11 9 11 9 9 10 11 11 11 11 11 10 8 8 11
12 12 14 14 14 13 13 13 10 11 10 10 11 10 9 9 6 6 5 5 6 6 7 8 8 9 10 10 11 11 8 2 8 7 7 8 9 10 10 10 12 13 11 13
12 3 12 14 15 14 13 12 12 10 11 11 9 8 7 7 6 5 4 5 5 6 7 8 8 10 10 11 12 12 8 7 10 7 5 4 5 7 9 9 10 11 12 12
7 13 15 16 16 15 13 12 10 10 10 10 9 8 7 6 5 6 4 5 6 7 7 7 8 9 10 11 12 10 9 4 7 9 9 9 9 6 7 9 7 9 9 11
15 15 17 16 15 14 12 9 10 10 10 9 9 7 6 5 6 5 5 6 4 4 5 5 7 7 9 12 11 8 8 8 7 8 9 9 9 10 10 10 10 7 5 5
12 14 14 14 13 12 10 9 10 11 10 10 8 6 6 4 5 5 3 3 3 5 3 2 4 6 6 9 8 8 8 8 8 9 8 9 9 10 10 10 11 11 11 6
15 14 13 12 11 10 10 10 11 11 10 9 8 6 5 5 5 3 1 2 5 5 7 6 5 9 6 3 7 10 7 9 9 8 9 10 9 10 10 11 11 11 11 11
14 14 13 13 11 11 11 12 12 11 9 8 6 6 6 5 5 3 3 6 4 3 4 8 6 8 9 1 6 11 7 7 9 8 8 9 10 10 10 10 10 11 11 11
15 15 14 12 11 12 12 12 11 9 8 7 6 5 5 4 4 4 8 9 6 4 5 10 10 7 7 6 8 12 8 8 9 9 8 8 10 11 10 10 10 10 10 10
14 13 13 13 13 12 12 11 10 9 8 6 6 6 5 5 5 6 7 5 6 4 6 9 6 7 8 9 9 11 10 9 8 6 8 8 8 9 10 10 10 10 10 10
13 13 13 12 12 13 12 10 10 9 8 7 6 5 4 4 4 5 4 8 6 7 7 7 4 4 6 7 8 10 10 10 10 8 5 7 8 7 8 9 9 9 10 10
14 13 12 12 13 11 11 10 10 9 8 7 5 4 5 5 2 1 4 3 2 3 8 7 6 8 6 8 9 6 7 8 9 11 8 5 5 5 4 5 9 9 10 10
13 13 12 13 12 9 10 10 10 9 8 7 8 7 6 6 4 4 4 4 6 8 9 4 15 13 7 9 6 8 7 6 5 8 10 10 7 8 5 4 6 8 8 9
13 10 10 12 9 9 9 9 8 9 9 8 8 5 2 2 3 4 5 3 8 7 10 9 8 1 8 9 7 9 9 10 8 8 10 7 6 5 6 5 3 7 8 8
10 10 10 9 8 8 7 7 6 7 3 2 2 1 1 2 3 3 5 8 6 8 9 7 11 7 7 9 6 6 8 10 8 10 8 10 7 6 4 2 4 5 6 7
Wind_Direction
164 237 84 352 260 158 295 334 333 355 55 85 65 98 122 134 115 127 110 91 102 80 61 68 65 350 25 357 347 341 336 328 346 336 332 328 321 320 313 307 295 294 293 290
152 198 180 200 117 327 347 323 296 314 64 81 98 105 130 122 123 125 116 104 93 139 171 26 359 0 8 348 341 347 336 339 344 344 339 332 333 327 318 309 302 292 287 284
214 208 222 236 184 170 23 308 355 327 82 118 123 119 129 135 135 125 123 109 72 43 26 360 351 7 1 334 337 347 351 357 359 351 340 333 328 326 315 311 304 299 295 282
234 185 220 79 75 70 0 25 333 95 126 137 131 127 138 145 132 121 102 69 41 19 357 354 3 5 356 348 360 353 346 356 343 340 331 326 326 321 316 311 310 304 296 288
143 200 132 149 144 153 193 131 147 124 140 130 140 129 127 101 99 91 72 37 14 11 349 10 9 6 356 5 0 2 354 344 340 331 329 331 328 323 319 319 312 305 299 297
224 263 305 99 113 103 85 265 122 131 154 157 163 217 126 137 115 83 52 29 3 355 4 17 18 3 1 8 358 358 349 342 337 337 327 320 315 316 315 312 305 313 305 295
156 248 115 119 132 128 233 91 132 141 155 164 185 55 111 124 106 70 37 33 355 13 21 22 18 9 359 358 7 351 343 332 329 333 331 328 328 326 327 321 315 308 303 295
166 44 255 139 146 58 97 140 127 135 140 136 108 122 114 101 72 49 32 24 15 20 26 14 18 3 360 8 2 342 335 329 334 329 328 317 323 330 327 317 311 316 311 310
42 18 120 110 81 111 118 123 140 133 125 124 143 130 116 92 74 59 34 34 29 15 21 18 16 3 354 15 352 345 339 335 331 332 328 334 331 329 321 321 317 314 312 318
151 175 129 95 105 107 123 126 119 129 128 143 128 131 119 91 79 79 58 44 26 12 17 13 6 357 359 6 353 352 346 346 349 343 346 340 334 335 336 327 323 316 316 316
97 114 114 123 126 125 121 124 121 121 123 114 120 105 113 108 93 83 63 46 33 20 15 11 2 353 357 11 350 346 338 350 359 352 347 349 350 347 338 336 330 323 327 318
336 141 201 150 144 138 136 132 128 120 114 96 105 113 109 106 98 83 62 45 32 21 17 8 2 356 359 354 351 339 336 355 349 344 349 356 351 348 333 328 320 332 316 328
117 138 116 139 144 147 142 134 134 124 120 118 116 116 115 108 90 84 73 43 30 15 14 8 2 1 358 346 341 327 352 358 343 346 344 350 349 352 349 355 350 354 8 340
111 118 127 146 149 141 135 120 121 116 119 116 115 123 123 120 132 84 50 35 27 12 17 5 1 4 351 344 341 329 350 193 343 343 344 341 344 337 349 351 350 355 10 347
143 122 144 141 134 135 133 146 140 131 121 124 124 119 118 118 102 80 47 26 29 30 22 7 3 5 352 344 340 319 340 356 342 332 332 330 340 348 326 356 359 356 355 2
164 127 137 145 145 148 155 156 142 135 136 133 129 128 119 117 112 100 59 65 38 43 32 19 14 7 354 347 339 334 343 131 313 330 343 348 341 330 324 338 6 10 2 357
144 145 153 150 154 158 159 152 136 142 137 139 130 130 132 125 129 112 112 98 87 58 47 25 10 352 360 5 338 352 335 349 326 337 346 347 345 334 343 346 346 359 1 340
153 150 152 155 153 153 143 135 136 140 143 133 131 139 135 133 109 134 136 162 189 166 86 349 7 329 351 10 343 334 345 349 352 350 345 348 334 333 338 348 343 343 345 351
135 145 139 140 141 141 139 143 140 133 132 141 152 150 133 141 154 166 180 299 256 273 58 329 147 277 339 10 306 305 354 353 355 358 359 329 353 340 346 348 341 342 345 350
133 125 129 131 136 142 141 136 134 142 146 152 146 147 170 159 176 211 269 274 298 331 341 305 305 283 297 110 267 293 318 355 345 355 1 341 359 336 351 345 344 346 348 347
132 132 131 137 136 137 137 139 145 142 142 144 163 172 179 165 210 232 240 259 172 95 305 272 258 302 315 357 322 303 319 346 333 336 339 351 346 348 346 344 351 344 351 350
137 135 138 138 142 140 139 147 141 143 150 152 144 154 165 189 220 227 227 266 299 166 343 313 346 32 338 320 302 305 321 320 311 313 323 328 355 339 344 344 349 341 346 352
136 137 140 147 145 140 145 141 146 151 153 159 159 168 215 337 333 328 309 148 303 47 323 296 38 322 304 291 290 290 300 305 312 308 310 309 330 329 335 338 334 342 343 347
135 140 142 141 138 146 148 157 150 154 154 161 171 181 273 298 197 202 81 177 116 303 284 285 266 236 243 284 283 301 324 316 328 320 319 281 288 320 299 325 336 351 344 334
139 140 146 141 151 153 155 161 155 156 165 213 161 210 226 223 330 17 347 331 201 251 305 231 228 233 246 281 322 311 314 311 285 286 311 308 284 289 309 317 334 342 331 347
146 156 144 166 162 155 170 172 187 177 195 195 198 198 261 128 156 239 242 252 276 282 287 312 320 276 265 317 318 307 303 313 319 331 341 324 301 303 270 306 336 334 334 336
158 145 150 178 175 177 160 181 180 159 213 239 266 227 184 246 133 285 255 278 334 309 305 351 323 337 326 294 296 322 321 344 354 345 326 305 296 272 282 325 335 310 311 330